Del Bajio, Mexico

7:34 AM CDT on April 19, 2018 (GMT -0500)
De Guanajuato International

Weather History for MMLO - January, 2014

Change the Weather History Date:

Saturday, January 4, 2014

  Actual Average Record
Temperature  
Mean Temperature 57 °F -  
Max Temperature 73 °F 74 °F 82 °F (2006)
Min Temperature 41 °F 41 °F 32 °F (2008)
Degree Days  
Heating Degree Days 8    
Growing Degree Days 7 (Base 50)    
Moisture  
Dew Point 40 °F    
Average Humidity 60    
Maximum Humidity 93    
Minimum Humidity 23    
Precipitation  
Precipitation 0.00 in - - ()
Sea Level Pressure  
Sea Level Pressure 30.15 in    
Wind  
Wind Speed 3 mph ()    
Max Wind Speed 15 mph    
Max Gust Speed -    
Visibility 8.4 miles    
Events      
Averages and records for this station are not official NWS values.
T = Trace of Precipitation, MM = Missing Value Source: Averaged Metar Reports

Daily Weather History Graph

Daily Weather History Graph

Search for Another Location

Airport or City:

Astronomy

Jan. 04, 2014 Rise Set
Actual Time 7:23 AM CST 6:18 PM CST
Civil Twilight 6:59 AM CST 6:42 PM CST
Nautical Twilight 6:32 AM CST 7:09 PM CST
Astronomical Twilight 6:05 AM CST 7:36 PM CST
Moon 10:00 AM CST (1/4) 10:05 PM CST (1/4)
Length of Visible Light 11h 42m
Length of Day
10h 54m
Waxing Crescent, 15% of the Moon is Illuminated
Jan 4
Waxing Crescent
Jan 7
First Quarter
Jan 15
Full
Jan 23
Last Quarter
Jan 30
New

Hourly Weather History & Observations

Time (CST) Temp. Dew Point Humidity Pressure Visibility Wind Dir Wind Speed Gust Speed Precip Events Conditions
12:46 AM 48.2 °F 41.0 °F 76% 30.24 in 8.0 mi ENE 4.6 mph - N/A   Clear
2:41 AM 44.6 °F 41.0 °F 87% 29.98 in 8.0 mi Calm Calm - N/A   Clear
3:44 AM 44.6 °F 39.2 °F 81% 30.24 in 8.0 mi Calm Calm - N/A   Clear
4:43 AM 42.8 °F 39.2 °F 87% 30.24 in 8.0 mi Calm Calm - N/A   Clear
5:43 AM 42.8 °F 39.2 °F 87% 30.06 in 8.0 mi Calm Calm - N/A   Clear
6:43 AM 41.0 °F 39.2 °F 93% 30.24 in 8.0 mi Calm Calm - N/A   Clear
7:43 AM 41.0 °F 39.2 °F 93% 30.27 in 8.0 mi Calm Calm - N/A   Clear
8:47 AM 48.2 °F 44.6 °F 87% 30.11 in 8.0 mi Calm Calm - N/A   Clear
9:45 AM 57.2 °F 44.6 °F 63% 30.29 in 8.0 mi Calm Calm - N/A   Clear
10:40 AM 62.6 °F 42.8 °F 48% 30.29 in 8.0 mi Calm Calm - N/A   Partly Cloudy
11:42 AM 66.2 °F 42.8 °F 43% 30.04 in 8.0 mi Calm Calm - N/A   Partly Cloudy
12:40 PM 69.8 °F 42.8 °F 38% 30.24 in 9.0 mi West 6.9 mph - N/A   Scattered Clouds
1:43 PM 73.4 °F 41.0 °F 31% 30.21 in 9.0 mi SW 10.4 mph - N/A   Scattered Clouds
2:41 PM 73.4 °F 35.6 °F 25% 29.90 in 10.0 mi West 13.8 mph - N/A   Mostly Cloudy
3:47 PM 71.6 °F 39.2 °F 31% 30.18 in 10.0 mi West 8.1 mph - N/A   Mostly Cloudy
4:56 PM 71.6 °F 32.0 °F 23% 30.18 in 10.0 mi WSW 15.0 mph - N/A   Mostly Cloudy
5:40 PM 66.2 °F 33.8 °F 30% 30.07 in 10.0 mi West 5.8 mph - N/A   Mostly Cloudy
6:53 PM 60.8 °F 39.2 °F 45% 30.18 in 8.0 mi West 5.8 mph - N/A   Mostly Cloudy
7:43 PM 57.2 °F 37.4 °F 48% 30.18 in 8.0 mi Calm Calm - N/A   Mostly Cloudy
8:45 PM 53.6 °F 39.2 °F 58% 29.99 in 8.0 mi Calm Calm - N/A   Scattered Clouds
9:50 PM 51.8 °F 39.2 °F 62% 30.21 in 8.0 mi NE 5.8 mph - N/A   Scattered Clouds
10:47 PM 48.2 °F 39.2 °F 71% 30.21 in 8.0 mi Calm Calm - N/A   Scattered Clouds
11:44 PM 48.2 °F 39.2 °F 71% 29.93 in 8.0 mi NNE 6.9 mph - N/A   Scattered Clouds